Regional Weather Roundup
Issued by NWS

Home | Current Version | Previous Version | Graphics & Text | Print | Product List | Glossary On
Versions: 1 2 3 4 5 6 7 8 9 10 11 12 13 14 15 16 17 18 19 20 21 22 23 24 25 26 27 28 29 30 31 32 33 34 35 36 37 38 39 40 41 42 43 44 45 46 47 48 49 50
000
ASUS43 KIND 301559
RWRIN

WEATHER ROUNDUP FOR INDIANA
NATIONAL WEATHER SERVICE INDIANAPOLIS IN
1200 PM EDT SUN AUG 30 2015

NOTE: "FAIR" INDICATES FEW OR NO CLOUDS BELOW 12,000 FEET WITH NO
SIGNIFICANT WEATHER AND/OR OBSTRUCTIONS TO VISIBILITY.

* - STATION DOES NOT REPORT WEATHER SUCH AS PRECIPITATION OR FOG.

+ - STATION NOT QUALITY CONTROLLED BY THE NATIONAL WEATHER SERVICE.
    USE DATA WITH CAUTION...ESPECIALLY DEWPOINT AND RELATIVE
    HUMIDITY OBSERVATIONS.

INZ001>003-010>013-019-020-301700-
NORTHWEST INDIANA

CITY           SKY/WX    TMP DP  RH WIND       PRES   REMARKS
GARY /AIRPORT/ PTSUNNY   72  63  73 CALM      30.09S
KNOX *+        CLOUDY    68  68 100 CALM      30.08S VSB 1
MONTICELLO +   PTSUNNY   75  71  88 CALM      30.07S

$$

LMZ046-743>745-301700-
SOUTHERN LAKE MICHIGAN

STATION/POSITION TIME  TEMP    WIND        PRES    WAVE
                       AIR SEA DIR/SP/G            HT
                 (UTC) (F)     (DEG/KT/KT) (MB)    (FT)
BURNS HARBOR     1500   69     330/  3/  4 1019.0S
MICHIGAN CITY    1500   71     270/  5/  5   N/A
5NW MICH CITY    1500   69 71  330/  4/  6   N/A     1

$$

INZ004-005-014>016-021>024-301700-
NORTH CENTRAL INDIANA

CITY           SKY/WX    TMP DP  RH WIND       PRES   REMARKS
ELKHART        CLOUDY    72  68  88 NW5       30.09R FOG
GOSHEN         CLOUDY    74  68  81 W5        30.08S HAZE
SOUTH BEND     CLOUDY    71  66  84 NW6       30.09S
WARSAW +       CLOUDY    73  68  83 SW3       30.09S

$$

INZ006>009-017-018-025>027-301700-
NORTHEAST INDIANA

CITY           SKY/WX    TMP DP  RH WIND       PRES   REMARKS
ANGOLA *+      PTSUNNY   77  72  83 SW5       30.08S
FORT WAYNE     MOSUNNY   79  68  69 VRB7      30.09S

$$

INZ028-029-035-036-043>045-051>053-301700-
WEST CENTRAL INDIANA

CITY           SKY/WX    TMP DP  RH WIND       PRES   REMARKS
CRAWFORDSVL +  PTSUNNY   77  61  56 SW8       30.09S
GREENCASTLE +  SUNNY     79  61  53 CALM      30.10F
LAFAYETTE      MOSUNNY   78  66  66 VRB6      30.07S
TERRE HAUTE    MOSUNNY   79  64  60 SW9       30.09S

$$

INZ030>032-037>040-046>048-054>057-064-065-301700-
CENTRAL INDIANA

CITY           SKY/WX    TMP DP  RH WIND       PRES   REMARKS
COLUMBUS       SUNNY     77  68  73 CALM      30.12R
FRANKFORT +    SUNNY     79  67  67 S10       30.11S
GREENWOOD *+   SUNNY     81  64  57 CALM      30.10F
INDIANAPOLIS   MOSUNNY   81  65  58 SW12      30.09S
-EAGLE CREEK   MOSUNNY   80  65  59 VRB6      30.09S
KOKOMO *+      SUNNY     81  64  57 SW9       30.09S
MT COMFORT *+  MOSUNNY   81  66  61 S3        30.10F
SHELBYVILLE    SUNNY     80  70  71 VRB5      30.10S

$$

INZ033-034-041-042-049-050-058-059-301700-
EAST CENTRAL INDIANA

CITY           SKY/WX    TMP DP  RH WIND       PRES   REMARKS
MUNCIE         SUNNY     79  67  66 VRB6      30.10S

$$

INZ060-061-067>069-081>083-085>088-301700-
SOUTHWEST INDIANA

CITY           SKY/WX    TMP DP  RH WIND       PRES   REMARKS
EVANSVILLE     PTSUNNY   80  68  66 VRB3      30.11R
HUNTINGBURG *+ MOSUNNY   81  70  69 SW3       30.11S

$$

INZ062-063-066-070>080-084-089>092-301700-
SOUTH CENTRAL AND SOUTHEAST INDIANA

CITY           SKY/WX    TMP DP  RH WIND       PRES   REMARKS
BLOOMINGTON    SUNNY     81  65  58 SW7       30.11S
MADISON *+     MOSUNNY   81  68  65 W5        30.14S
SEYMOUR +      MOSUNNY   82  68  61 SW3       30.11S

$$



USA.gov is the U.S. government's official web portal to all federal, state and local government web resources and services.